Location: Steinfeld
(52.5860°N, 8.2142°E)
Time: 04:20:14
(UTC+00:00)

Daily predictions for brighter satellites

Satellite Brightness Start Highest point End
(mag) Time Altitude Azimuth Time Altitude Azimuth Time Altitude Azimuth
CZ-4C R/B 3.5 00:06:34 39° NNW 00:06:34 39° NNW 00:12:48 10° NE
USA 234 3.6 00:01:58 10° E 00:17:11 - WNW 00:07:48 60° NNE
Cosmos 2369 Rocket 3.5 00:10:56 36° N 00:10:56 36° N 00:14:40 10° NNE
ADEOS II 4.0 00:40:38 10° NE 00:44:28 21° E 00:44:28 21° E
Cosmos 2227 Rocket 3.4 00:50:56 10° NNW 00:54:07 35° NNW 00:54:07 35° NNW
Cosmos 2181 Rocket 4.3 00:58:47 58° ENE 00:58:47 58° ENE 01:04:23 10° NNE
USA 267 4.5 01:07:53 10° ENE 01:13:06 27° SE 01:13:06 27° SE
SL-16 R/B 3.0 01:15:10 51° NW 01:15:10 51° NW 01:19:46 10° NNW
SJ 16-02 4.1 01:15:55 10° N 01:18:47 17° NE 01:21:40 10° E
CZ-2D R/B 2.6 01:14:31 10° NNE 01:18:48 57° NE 01:18:48 57° NE
ATLAS 2AS CENTAUR R/B 4.1 01:12:42 10° NW 01:19:57 39° NNE 01:26:47 10° E
Cosmos 1943 Rocket 4.2 01:21:06 17° NW 01:22:21 18° NNW 01:26:10 10° NNE
Resurs 1-4 Rocket 2.5 01:21:39 10° NNE 01:25:56 60° NNE 01:25:56 60° NNE
Lacrosse 5 3.5 01:29:27 25° ESE 01:29:27 25° ESE 01:32:26 10° ENE
ATLAS 5 CENTAUR R/B 2.8 01:30:41 41° NNE 01:30:41 41° NNE 01:34:03 10° NE
Cosmos 2221 4.5 01:31:42 23° N 01:31:42 23° N 01:33:33 10° N
NPP 3.9 01:25:29 10° NNE 01:30:13 67° NE 01:30:13 67° NE
SL-08 R/B 4.1 01:37:45 47° ENE 01:37:49 47° ENE 01:42:16 10° N
Cosmos 2297 Rocket 4.0 01:37:45 10° NW 01:39:22 19° NW 01:39:22 19° NW
Cosmos 1818 3.7 01:44:09 73° NNE 01:44:09 73° NNE 01:49:06 10° NE
Cosmos 2082 4.3 01:43:39 10° NNW 01:47:38 47° NW 01:47:38 47° NW
Timation 1 Rocket 4.5 01:44:23 10° NNW 01:50:26 73° NE 01:56:26 10° SE
AQUA 4.3 01:45:43 10° NNE 01:49:34 58° N 01:49:34 58° N
Cosmos 1470 Rocket 4.3 01:46:47 10° N 01:50:51 50° ENE 01:50:51 50° ENE
USA 234 3.1 01:44:44 10° ESE 01:51:17 90° SE 01:55:07 28° WNW
Cosmos 1992 Rocket 4.1 01:54:52 68° NNW 01:54:52 68° NNW 01:59:36 10° NNE
Cosmos 1777 Rocket 4.1 01:49:04 10° NNW 01:53:37 66° NNW 01:53:37 66° NNW
Cosmos 2369 Rocket 4.2 01:52:43 15° NW 01:54:37 17° NNW 01:58:21 10° NNE
CZ-4C R/B 4.1 01:51:44 13° NW 01:56:40 33° N 02:03:11 10° ENE
Cosmos 1821 Rocket 4.0 01:51:48 10° N 01:58:10 81° E 02:00:05 48° SSE
CZ-4B R/B 3.5 01:53:36 10° NNE 01:58:42 77° ESE 01:58:43 77° ESE
Cosmos 1697 Rocket 2.9 02:01:35 54° SE 02:02:18 58° ESE 02:07:49 10° NE
Cosmos 972 Rocket 4.4 02:05:42 47° SE 02:06:17 50° ESE 02:11:05 10° NNE
NOSS 2-2 (C) 4.3 02:06:12 69° WSW 02:06:35 71° SW 02:13:57 10° SE
SL-24 R/B - RUBIN 2 4.4 02:05:40 65° WSW 02:06:43 82° NW 02:13:33 10° NE
Cosmos 1980 Rocket 3.3 02:05:36 29° SSE 02:07:29 37° ESE 02:12:39 10° NE
Cosmos 1934 Rocket 4.3 02:03:29 10° N 02:09:31 62° ENE 02:15:17 11° SSE
Cosmos 2263 Rocket 2.9 02:04:56 10° NNW 02:10:29 54° NE 02:16:02 10° SE
Cosmos 1933 3.9 02:13:43 56° NNE 02:13:43 56° NNE 02:17:01 10° NNE
Meteor 1-25 Rocket 4.1 02:07:52 10° NNW 02:13:44 82° W 02:14:52 59° S
Cosmos 1633 Rocket 4.4 02:17:47 10° NNW 02:20:01 28° NNW 02:20:01 28° NNW
Gbstr 26 Del rocket 4.4 02:18:37 36° W 02:22:18 75° SSW 02:29:53 10° ESE
Cosmos 1328 Rocket 3.5 02:24:02 87° ENE 02:24:02 87° ENE 02:28:29 10° NNE
ADEOS II 1.9 02:19:33 10° NNE 02:24:49 73° WNW 02:25:24 66° WSW
CZ-3B R/B 2.1 02:25:23 64° SE 02:25:23 64° SE 02:32:17 10° ENE
Celestis-02/Orion 38 4.5 02:20:41 10° SSE 02:25:56 90° SSW 02:31:08 10° NNW
Cosmos 1151 Rocket 3.0 02:26:32 76° NNW 02:26:32 76° NNW 02:30:38 10° N
USA 305 3.5 02:27:21 45° SE 02:27:21 45° SE 02:31:04 10° ENE
Cosmos 1933 Rocket 3.5 02:23:58 10° N 02:28:23 81° E 02:28:51 69° SE
Cosmos 2227 4.4 02:23:01 10° NNW 02:28:43 72° ENE 02:34:21 10° SE
Nadezhda 3 Rocket 3.8 02:26:57 45° SSW 02:28:59 86° W 02:35:12 10° N
ARIANE 5 R/B 2.7 02:24:35 10° NNE 02:29:43 69° ESE 02:31:22 42° S
USA 306 3.4 02:31:23 49° SE 02:31:23 49° SE 02:35:16 10° ENE
Cosmos 1656 3.8 02:32:28 51° W 02:33:15 56° NW 02:38:44 10° NNE
IDEFIX/ARIANE 42P 3.0 02:28:53 10° NNE 02:34:08 60° ESE 02:36:51 28° S
IRS-1D 3.7 02:29:27 10° N 02:34:43 57° WNW 02:35:24 53° W
CZ-4C R/B 4.2 02:32:38 16° SE 02:35:14 43° ENE 02:38:38 10° N
Cosmos 1605 Rocket 4.4 02:29:48 10° N 02:36:11 65° ENE 02:42:32 10° SSE
Cosmos 1535 Rocket 4.5 02:31:12 10° N 02:37:38 89° E 02:44:02 10° S
Meteor 1-14 Rocket 4.1 02:32:11 10° NNW 02:37:52 89° WSW 02:42:40 14° S
ASTEX 1 3.5 02:33:56 10° N 02:38:58 74° E 02:41:21 31° S
Cosmos 2227 Rocket 4.4 02:35:52 10° NW 02:35:53 10° NW 02:35:53 10° NW
Cosmos 2228 Rocket 4.1 02:39:36 21° SSE 02:42:14 45° E 02:46:28 10° NNE
CBERS-1 4.2 02:38:55 10° N 02:43:51 50° WNW 02:44:31 47° W
CZ-2D R/B 3.6 02:42:42 10° NNE 02:46:55 71° ESE 02:48:18 41° S
Cosmos 1869 Rocket 4.2 02:43:26 10° N 02:47:44 55° ENE 02:51:59 10° SSE
NOSS 3-4 (A) 4.2 02:41:28 10° NW 02:48:09 63° NE 02:55:35 10° ESE
NOSS 3-4 (C) 4.2 02:41:34 10° NW 02:48:14 62° NE 02:55:41 10° ESE
IRS-1C 4.1 02:45:44 10° NNE 02:51:04 68° WNW 02:52:48 42° SW
USA 267 3.3 02:50:33 10° ENE 02:57:06 72° SSE 03:00:27 31° SW
Cosmos 1238 Rocket 3.9 02:50:56 10° NNW 02:57:34 72° W 03:03:43 10° S
SJ 16-02 1.2 02:53:38 10° NNW 02:58:03 88° ENE 03:02:28 10° SSE
CZ-2C R/B 3.3 02:54:34 10° NNE 02:58:18 56° ESE 03:00:12 26° S
SL-16 R/B 4.4 03:00:15 13° WNW 03:00:15 13° WNW 03:01:40 10° NW
USA 307 3.0 02:57:59 53° SSW 02:58:44 66° SSE 03:02:58 10° ENE
CZ-2D R/B 3.5 02:55:22 10° N 02:59:24 22° NW 03:00:07 22° WNW
Cosmos 1782 2.7 02:59:09 58° SW 02:59:46 70° WNW 03:03:49 10° N
Cosmos 44 3.5 02:59:36 33° S 03:01:21 57° SE 03:05:58 10° NE
USA 308 2.9 03:01:02 51° SW 03:01:55 67° SSE 03:06:10 10° ENE
Meteor 1-4 Rocket 4.3 02:59:36 10° SSE 03:02:42 30° E 03:05:51 10° NNE
Cosmos 389 Rocket 2.3 03:02:26 68° SW 03:02:50 82° WNW 03:06:26 10° NNE
Cosmos 1606 4.5 03:04:57 19° NW 03:04:57 19° NW 03:06:56 10° NNW
USA 276 2.6 03:04:24 50° SSE 03:04:24 50° SSE 03:07:16 10° E
Cosmos 2278 3.6 03:02:25 32° SSW 03:05:12 87° WNW 03:10:58 10° NNE
Resurs 1-4 Rocket 3.6 03:02:26 10° N 03:06:10 20° NW 03:07:00 19° WNW
Cosmos 990 Rocket 4.0 03:01:01 10° NNW 03:06:14 80° ENE 03:11:28 10° SSE
ATLAS CENTAUR R/B 3.8 02:55:30 10° WNW 03:09:13 67° N 03:14:12 10° E
H-2A R/B 2.0 03:06:04 10° SSE 03:10:28 83° WSW 03:15:00 10° NNW
Lacrosse 5 1.8 03:08:39 38° WSW 03:10:39 90° SSE 03:15:46 10° ENE
ERBS 4.1 03:11:03 20° SSE 03:12:09 23° SE 03:14:54 10° E
ATLAS 2AS CENTAUR R/B 3.2 03:04:29 10° NW 03:12:12 69° NE 03:19:17 10° ESE
Cosmos 2369 3.9 03:11:30 32° WSW 03:14:01 58° NW 03:19:42 10° NNE
ATLAS 5 CENTAUR R/B 3.3 03:12:12 18° WNW 03:14:39 27° NNW 03:19:06 10° NE
SL-08 R/B 4.4 03:16:44 25° WNW 03:16:44 25° WNW 03:19:48 10° NW
Meteor 1-11 Rocket 3.9 03:14:51 10° NNW 03:20:43 79° ENE 03:26:25 10° SSE
Cosmos 1339 Rocket 4.4 03:15:38 10° SSW 03:21:56 83° W 03:28:10 10° N
Landsat 5 3.6 03:18:39 10° S 03:23:08 64° WSW 03:27:35 10° NNW
ADEOS Rocket 3.3 03:17:43 10° SSE 03:24:23 77° ENE 03:30:24 10° NNW
CZ-4B R/B 2.6 03:22:16 10° SE 03:25:17 42° ENE 03:28:24 10° N
Cosmos 972 4.3 03:25:30 24° SW 03:28:28 68° WNW 03:33:23 10° NNE
Spot 4 Rocket 4.1 03:25:07 10° N 03:30:11 58° WNW 03:33:39 20° SW
MSX 3.8 03:26:40 10° NNE 03:32:28 73° WNW 03:37:58 11° SSW
ERS-2 2.0 03:29:36 10° SSE 03:33:16 78° WSW 03:36:58 10° NNW
USA 234 3.6 03:28:44 10° SSE 03:34:47 40° SW 03:40:52 10° WNW
Meteor 1-27 Rocket 4.4 03:30:46 10° S 03:36:34 60° E 03:42:23 10° NNE
Cosmos 1536 2.9 03:36:46 10° N 03:40:51 81° ENE 03:44:56 10° SSE
Cosmos 1898 Rocket 3.5 03:36:00 10° NNW 03:41:11 63° WSW 03:46:24 10° S
Cosmos 2360 Rocket 4.1 03:36:43 10° SSE 03:41:30 29° ESE 03:46:19 10° NE
X-37B 2.4 03:42:02 17° SSW 03:42:13 17° SSW 03:44:26 10° SSE
IRIDIUM 104 4.3 03:38:43 10° N 03:43:53 61° W 03:49:01 10° SSW
Cosmos 1697 Rocket 3.5 03:43:21 20° W 03:46:34 35° NW 03:51:44 10° NNE
CZ-4C R/B 3.6 03:40:05 10° NW 03:46:36 53° NNE 03:54:19 10° ESE
Cosmos 372 Rocket 4.5 03:43:51 10° NNW 03:49:00 64° ENE 03:54:05 10° SE
Cosmos 1980 Rocket 2.5 03:47:24 18° WSW 03:51:23 50° NW 03:56:55 10° NNE
Cosmos 858 Rocket 4.4 03:46:47 10° NNW 03:51:58 69° WSW 03:57:07 10° SSE
IRIDIUM 114 4.5 03:47:56 10° NNW 03:53:00 52° W 03:58:03 10° SSW
Cosmos 2278 Rocket 4.4 03:49:16 10° NNW 03:53:57 26° NE 03:58:39 10° E
Cosmos 2263 Rocket 2.7 03:49:10 10° NW 03:54:14 34° WSW 03:59:17 10° S
Cosmos 921 Rocket 3.1 03:52:48 16° SW 03:56:03 53° WNW 04:00:11 10° NNE
Cosmos 1844 4.2 03:50:33 10° NNW 03:56:08 63° NE 04:01:38 10° SE
Cosmos 2322 Rocket 2.7 03:52:25 10° SSW 03:58:00 63° ESE 04:03:40 10° NE
USA 32 4.0 03:53:29 10° NNW 03:58:42 64° W 04:03:53 10° S
Cosmos 1844 Rocket 2.9 03:54:52 10° NNW 04:00:33 77° ENE 04:06:13 10° SE
Cosmos 1500 4.4 03:57:43 10° NW 04:00:47 23° W 04:03:18 13° SW
Cosmos 2173 Rocket 4.0 03:54:58 10° NNW 04:01:20 84° W 04:07:42 10° S
ADEOS II 3.8 04:00:32 10° NNW 04:03:42 16° NW 04:06:19 12° W
COSMOS 2455 4.4 03:58:20 10° NNW 04:03:52 35° NNE 04:09:21 10° E
Cosmos 1812 3.2 04:01:20 12° SW 04:04:38 39° WNW 04:08:18 10° N
Cosmos 1707 Rocket 3.5 04:00:43 10° SSW 04:05:02 75° W 04:09:25 10° N
Cosmos 1666 3.1 04:02:58 10° NNW 04:06:34 39° W 04:10:07 10° SSW
USA 305 2.9 04:03:31 16° W 04:06:54 79° N 04:11:10 10° ENE
Cosmos 1937 Rocket 3.6 04:02:02 10° NNW 04:07:03 53° WSW 04:12:01 10° S
SL-16 R/B 2.3 04:01:27 10° SSW 04:07:07 84° ESE 04:12:51 10° NNE
CZ-4C R/B 4.5 04:06:18 14° SW 04:08:08 19° W 04:10:45 10° NW
ARIANE 5 R/B 3.8 04:04:23 10° N 04:08:23 24° WNW 04:11:42 13° WSW
ADEOS 3.8 04:03:56 10° NNE 04:09:11 74° ESE 04:14:24 10° S
USA 306 2.9 04:07:32 15° W 04:11:06 78° N 04:15:22 10° ENE
IDEFIX/ARIANE 42P 3.6 04:09:00 10° N 04:13:25 28° WNW 04:17:39 11° WSW
CZ-2C R/B 2.6 04:12:50 10° N 04:17:50 58° WNW 04:22:54 10° SSW
Cosmos 1733 Rocket 3.1 04:14:21 10° NNW 04:18:39 58° W 04:22:53 10° S
Cosmos 841 Rocket 3.9 04:15:00 10° SSW 04:20:10 67° ESE 04:25:25 10° NNE
Cosmos 2061 Rocket 4.1 04:14:02 10° N 04:20:31 88° W 04:26:58 10° S
Cosmos 2228 Rocket 4.2 04:17:08 10° WSW 04:20:40 25° WNW 04:24:21 10° N
SAR-Lupe-4 3.8 04:18:45 10° S 04:22:15 49° W 04:25:46 10° NNW
Cosmos 44 Rocket 4.4 04:20:20 10° SSW 04:24:50 45° ESE 04:29:29 10° NE
SKYMED 2 3.8 04:20:35 10° SSE 04:24:55 79° ENE 04:29:17 10° NNW
SL-4 R/B 3.5 04:22:38 10° SW 04:26:55 37° SSE 04:31:22 10° E
Cosmos 1763 Rocket 3.6 04:23:41 10° SW 04:28:58 64° WNW 04:34:15 10° NNE
Cosmos 2016 Rocket 3.9 04:25:54 10° NNW 04:32:02 74° W 04:38:07 10° S
Cosmos 2219 Rocket 4.5 04:27:22 10° SSE 04:32:05 28° ESE 04:36:49 10° NE
CZ-2C R/B 4.4 04:29:49 10° NNW 04:32:23 18° WNW 04:34:59 10° WSW
FALCON 9 DEB 4.5 04:31:19 10° SW 04:34:28 34° SSE 04:37:37 10° E
SJ 16-02 3.0 04:33:54 10° WNW 04:35:57 13° W 04:38:00 10° WSW
PSLV R/B 4.3 04:33:41 10° N 04:37:26 32° WNW 04:41:10 10° SW
Cosmos 1975 3.4 04:33:30 10° N 04:37:32 66° ENE 04:41:31 10° SSE
Meteor 1-4 Rocket 3.7 04:34:55 10° WSW 04:37:47 23° WNW 04:40:42 10° N
USA 307 3.0 04:34:34 10° W 04:38:51 73° N 04:43:07 10° E
NOSS 3-4 (A) 4.1 04:32:28 10° NW 04:39:05 48° WSW 04:46:22 10° SSE
NOSS 3-4 (C) 4.1 04:32:34 10° NW 04:39:11 48° WSW 04:46:29 10° SSE
Cosmos 1862 Rocket 3.5 04:34:51 10° SSW 04:39:13 68° WNW 04:43:35 10° N
USA 267 3.5 04:33:40 10° ENE 04:40:10 68° NNW 04:46:39 10° W
USA 276 2.8 04:37:07 10° W 04:40:11 41° SSW 04:43:15 10° ESE
Cosmos 1570 Rocket 4.1 04:36:07 10° SSW 04:41:27 88° WNW 04:46:52 10° NNE
BREEZE-M DEB (TANK) 3.7 04:38:13 10° SW 04:42:57 27° S 04:45:19 10° ESE
